Simultaneous Nadir Overpasses (SNOs) Predictions

Prediction of SNOs between METOP-B and TERRA Satellite Orbit:

Table of predicted SNOs for the next 14.0 days since TLE Epoch: 2/23/2014
Index Date (METOP-B) Time (METOP-B) Lat,Lon (METOP-B) SZA (METOP-B ) Date (TERRA) Time (TERRA) Lat,Lon (TERRA) SZA (TERRA ) Distance(km) Time Diff (sec)
1 02/25/2014 00:22:53 -81.30, 41.07 87.20 02/25/2014 00:23:56 -81.30, 41.16 87.16 1.64 63
2 02/25/2014 01:13:33 81.31,-150.97 92.87 02/25/2014 01:13:22 81.31,-151.06 92.86 1.47 11
3 02/27/2014 19:57:18 -81.29, 107.33 88.25 02/27/2014 19:58:12 -81.29, 107.31 88.23 0.94 54
4 02/27/2014 20:47:58 81.30, -84.76 91.81 02/27/2014 20:47:37 81.31, -84.57 91.83 3.38 21
5 03/02/2014 15:31:42 -81.30, 173.90 89.28 03/02/2014 15:32:26 -81.29, 173.90 89.26 0.23 44
6 03/
